N1LTP Weather Reports


time (UTC)temp
C
wind
direction
speed
KPH
gust
KPH
rain 1hr
cm
rain 24hr
cm
rain mn
cm
humidity
%
barometer
mb
20260902194538 23 80 3.2 8.0 0.00 0.13 0.00 60 1019.8
20260902193044 23 64 4.8 12.9 0.00 0.13 0.00 62 1020.0
20260902191537 23 138 0.0 9.7 0.00 0.13 0.00 62 1020.1
20260902190036 23 66 3.2 8.0 0.00 0.13 0.00 61 1020.0
20260902184535 23 140 0.0 6.4 0.00 0.18 0.00 64 1020.1
20260902183039 23 90 1.6 8.0 0.00 0.18 0.00 65 1020.0
20260902181533 23 36 1.6 11.3 0.00 0.18 0.00 65 1019.9
20260902180031 23 79 1.6 11.3 0.00 0.18 0.00 66 1019.8
20260902174529 23 59 1.6 6.4 0.00 0.30 0.00 69 1020.1
20260902173029 23 55 0.0 6.4 0.00 0.30 0.00 67 1020.3
20260902171530 22 74 0.0 6.4 0.00 0.30 0.00 68 1020.4
20260902170026 22 101 0.0 4.8 0.00 0.30 0.00 69 1020.5
20260902164532 22 62 1.6 4.8 0.00 0.30 0.00 70 1020.6
20260902163031 22 58 1.6 9.7 0.00 0.30 0.00 71 1020.5
20260902161523 22 56 1.6 4.8 0.00 0.30 0.00 71 1020.8
20260902160021 22 106 1.6 16.1 0.00 0.30 0.00 73 1020.9
20260902154522 22 52 1.6 12.9 0.00 0.30 0.00 73 1021.3
20260902153039 22 51 3.2 11.3 0.00 0.30 0.00 72 1021.3
20260902151515 22 43 1.6 9.7 0.00 0.30 0.00 74 1021.2
20260902150011 21 132 0.0 14.5 0.00 0.30 0.00 78 1021.3
20260902144506 20 148 0.0 6.4 0.00 0.33 0.00 80 1021.3
20260902143002 20 79 0.0 4.8 0.00 0.33 0.00 81 1021.0
20260902141600 19 76 0.0 6.4 0.00 0.33 0.00 84 1020.8
20260902140056 18 81 1.6 12.9 0.00 0.33 0.00 86 1020.7
20260902134556 18 81 0.0 3.2 0.00 0.33 0.00 89 1020.6
20260902133051 17 81 1.6 4.8 0.00 0.33 0.00 91 1020.4
20260902131549 17 94 0.0 3.2 0.00 0.33 0.00 92 1020.5
20260902130048 17 66 1.6 8.0 0.00 0.33 0.00 93 1020.6
20260902124545 17 82 3.2 11.3 0.00 0.33 0.00 93 1020.7
20260902123051 17 84 1.6 9.7 0.00 0.33 0.00 93 1020.7
20260902121540 16 355 0.0 3.2 0.00 0.33 0.00 93 1020.9
20260902120036 16 355 0.0 1.6 0.00 0.33 0.00 93 1021.0
20260902114533 15 355 0.0 3.2 0.00 0.33 0.00 93 1021.1
20260902113036 15 355 0.0 0.0 0.00 0.33 0.00 92 1021.0
20260902111530 15 355 0.0 0.0 0.00 0.33 0.00 92 1020.9
20260902110038 15 355 0.0 1.6 0.00 0.33 0.00 92 1020.8
20260902104527 15 355 0.0 0.0 0.00 0.33 0.00 92 1020.4
20260902103025 15 355 0.0 1.6 0.00 0.33 0.00 91 1020.4
20260902101527 15 355 0.0 0.0 0.00 0.33 0.00 92 1020.2
20260902100021 15 355 0.0 0.0 0.00 0.33 0.00 92 1019.9
20260902094523 15 355 0.0 0.0 0.00 0.33 0.00 92 1019.9
20260902093029 15 355 0.0 1.6 0.00 0.33 0.00 92 1019.7
20260902091519 15 355 0.0 0.0 0.00 0.33 0.00 92 1019.7
20260902090017 15 355 0.0 1.6 0.00 0.33 0.00 91 1019.5
20260902084520 15 355 0.0 1.6 0.00 0.33 0.00 91 1019.7
20260902083015 15 355 0.0 0.0 0.00 0.33 0.00 91 1019.6
20260902081514 15 355 0.0 0.0 0.00 0.33 0.00 92 1019.4
20260902080015 15 355 0.0 0.0 0.00 0.33 0.00 92 1019.4
20260902074513 15 355 0.0 1.6 0.00 0.33 0.00 92 1019.7
20260902073014 15 355 0.0 0.0 0.00 0.33 0.00 91 1019.6
20260902071510 15 355 0.0 1.6 0.00 0.33 0.00 91 1019.4
20260902070015 15 355 0.0 0.0 0.00 0.33 0.00 91 1019.4
20260902064509 15 355 0.0 0.0 0.00 0.33 0.00 91 1019.2
20260902063008 15 355 0.0 1.6 0.00 0.33 0.00 91 1019.2
20260902061522 15 355 0.0 1.6 0.00 0.33 0.00 92 1019.2
20260902060007 15 355 0.0 1.6 0.00 0.33 0.00 92 1019.5
20260902054510 15 355 0.0 1.6 0.00 0.33 0.00 91 1019.4
20260902053006 15 355 0.0 1.6 0.00 0.33 0.00 91 1019.2
20260902051505 15 355 0.0 0.0 0.00 0.33 0.00 91 1019.2
20260902050006 15 355 0.0 1.6 0.00 0.33 0.00 91 1019.3
20260902044502 15 355 0.0 0.0 0.00 0.33 0.00 91 1019.1
20260902043108 15 355 0.0 3.2 0.00 0.33 0.00 91 1019.1
20260902041559 15 355 0.0 0.0 0.00 0.33 0.00 91 1018.8
20260902040057 15 355 0.0 0.0 0.00 0.33 0.00 91 1018.4
20260902034558 15 355 0.0 0.0 0.00 0.33 0.33 91 1018.5
20260902033058 15 355 0.0 0.0 0.00 0.33 0.33 91 1018.4
20260902031554 15 355 0.0 0.0 0.00 0.33 0.33 91 1018.4
20260902030053 15 355 0.0 1.6 0.00 0.33 0.33 91 1018.3
20260902024553 15 355 0.0 0.0 0.00 0.33 0.33 91 1018.4
20260902023106 15 355 0.0 0.0 0.00 0.33 0.33 91 1018.3
20260902021550 15 355 0.0 0.0 0.00 0.33 0.33 90 1018.1
20260902020049 15 355 0.0 0.0 0.00 0.33 0.33 90 1018.1
20260902014549 15 355 0.0 1.6 0.00 0.33 0.33 90 1018.4
20260902013053 16 355 0.0 0.0 0.00 0.33 0.33 90 1018.2
20260902011546 16 355 0.0 0.0 0.00 0.33 0.33 90 1018.0
20260902010045 16 355 0.0 0.0 0.00 0.33 0.33 90 1018.3
20260902004544 16 355 0.0 0.0 0.00 0.33 0.33 90 1018.0
20260902003044 16 355 0.0 0.0 0.00 0.33 0.33 90 1017.9
20260902001559 16 355 0.0 1.6 0.00 0.33 0.33 90 1017.9
20260902000044 16 355 0.0 0.0 0.00 0.33 0.33 90 1017.9
20260901234540 16 355 0.0 0.0 0.00 0.33 0.33 90 1017.7
20260901233040 16 355 0.0 0.0 0.00 0.33 0.33 90 1017.6
20260901231540 16 355 0.0 0.0 0.00 0.33 0.33 90 1017.6
20260901230039 16 355 0.0 0.0 0.00 0.33 0.33 90 1017.6
20260901224538 16 355 0.0 0.0 0.00 0.33 0.33 90 1017.6
20260901223046 16 355 0.0 0.0 0.03 0.33 0.33 90 1017.6
20260901221554 16 355 0.0 3.2 0.03 0.33 0.33 90 1017.5
20260901220040 16 300 0.0 0.0 0.03 0.33 0.33 89 1017.8
20260901214537 16 300 0.0 1.6 0.08 0.33 0.33 89 1017.8
20260901213035 16 300 0.0 0.0 0.05 0.30 0.30 89 1017.7
20260901211535 16 300 0.0 0.0 0.05 0.30 0.30 89 1017.7
20260901210034 16 300 0.0 0.0 0.05 0.30 0.30 89 1017.5
20260901204533 16 300 0.0 1.6 0.03 0.25 0.25 89 1017.3
20260901203034 16 300 0.0 0.0 0.03 0.25 0.25 89 1017.3
20260901201532 16 321 0.0 0.0 0.05 0.25 0.25 88 1017.2
20260901200038 16 321 0.0 0.0 0.05 0.25 0.25 88 1017.2